Location: Aragüita
(10.0436°N, 67.8028°W)
Time: 02:28:18
(UTC+00:00)

Cosmos 1862 Rocket - Pass Details

Date: 24 January 2026
Orbit: 596 x 627 km, 82.5° (Epoch: 7 February)

Event Time Altitude Azimuth Distance (km) Brightness Sun altitude
Rises 09:16:21 0° 24° (NNE) 2,826 7.0 -23.7°
Reaches altitude 10° 09:19:20 10° 47° (NE) 1,925 6.4 -23.0°
Maximum altitude 09:21:52 16° 84° (E) 1,597 6.5 -22.4°
Drops below altitude 10° 09:24:25 10° 121° (ESE) 1,928 7.2 -21.8°
Sets 09:27:24 0° 143° (SE) 2,833 7.8 -21.1°
